| time (UTC) | temp F | wind direction | speed knots | gust knots | rain 1hr in | rain 24hr in | rain mn in | humidity % | barometer mb |
| 20260507000518 | 58 | 0.0 | 0.0 | 0.00 | 0.00 | 0.00 | 68 | 1016.3 | |
| 20260506235519 | 59 | 0.0 | 0.0 | 0.00 | 0.00 | 0.00 | 69 | 1016.5 | |
| 20260506234518 | 59 | 0.0 | 0.0 | 0.00 | 0.00 | 0.00 | 68 | 1016.5 | |
| 20260506233519 | 59 | 0.0 | 0.0 | 0.00 | 0.00 | 0.00 | 72 | 1016.6 | |
| 20260506232518 | 59 | 19 | 0.0 | 0.9 | 0.00 | 0.00 | 0.00 | 73 | 1016.6 |
| 20260506231519 | 59 | 0.0 | 0.0 | 0.00 | 0.00 | 0.00 | 75 | 1016.7 | |
| 20260506230518 | 59 | 0.0 | 0.9 | 0.00 | 0.00 | 0.00 | 75 | 1016.7 | |
| 20260506225519 | 59 | 0.0 | 0.0 | 0.00 | 0.00 | 0.00 | 76 | 1016.7 | |
| 20260506224538 | 59 | 0.0 | 0.0 | 0.00 | 0.00 | 0.00 | 77 | 1016.7 | |
| 20260506223538 | 59 | 0.0 | 0.0 | 0.00 | 0.00 | 0.00 | 77 | 1016.8 | |
| 20260506222518 | 59 | 0.0 | 0.0 | 0.00 | 0.00 | 0.00 | 77 | 1016.8 | |
| 20260506221519 | 59 | 0.0 | 0.0 | 0.00 | 0.00 | 0.00 | 78 | 1016.8 | |
| 20260506220519 | 59 | 22 | 0.0 | 1.7 | 0.00 | 0.00 | 0.00 | 77 | 1016.9 |
| 20260506215518 | 59 | 0.0 | 0.0 | 0.00 | 0.00 | 0.00 | 77 | 1016.9 | |
| 20260506214519 | 59 | 13 | 0.0 | 1.7 | 0.00 | 0.00 | 0.00 | 76 | 1016.8 |
| 20260506213518 | 59 | 0.0 | 0.0 | 0.00 | 0.00 | 0.00 | 75 | 1016.8 | |
| 20260506212518 | 59 | 0.0 | 0.9 | 0.00 | 0.00 | 0.00 | 73 | 1016.8 | |
| 20260506211518 | 60 | 339 | 0.9 | 1.7 | 0.00 | 0.00 | 0.00 | 72 | 1016.8 |
| 20260506210558 | 60 | 0.0 | 0.0 | 0.00 | 0.00 | 0.00 | 72 | 1016.8 | |
| 20260506205518 | 60 | 0.0 | 0.0 | 0.00 | 0.00 | 0.00 | 72 | 1016.8 | |
| 20260506204540 | 60 | 0.0 | 0.0 | 0.00 | 0.00 | 0.00 | 71 | 1016.8 | |
| 20260506203600 | 60 | 0.0 | 0.0 | 0.00 | 0.00 | 0.00 | 71 | 1016.7 | |
| 20260506202519 | 60 | 0.0 | 0.0 | 0.00 | 0.00 | 0.00 | 72 | 1016.7 | |
| 20260506201518 | 60 | 0.0 | 0.9 | 0.00 | 0.00 | 0.00 | 71 | 1016.8 | |
| 20260506200520 | 60 | 71 | 0.0 | 1.7 | 0.00 | 0.00 | 0.00 | 72 | 1016.8 |
| 20260506195518 | 61 | 336 | 0.9 | 2.6 | 0.00 | 0.00 | 0.00 | 70 | 1016.7 |
| 20260506194538 | 61 | 0.0 | 0.0 | 0.00 | 0.00 | 0.00 | 70 | 1016.6 | |
| 20260506193516 | 62 | 0.0 | 0.0 | 0.00 | 0.00 | 0.00 | 69 | 1016.5 | |
| 20260506192516 | 63 | 0.0 | 0.0 | 0.00 | 0.00 | 0.00 | 68 | 1016.4 | |
| 20260506191516 | 62 | 64 | 0.0 | 2.6 | 0.00 | 0.00 | 0.00 | 68 | 1016.3 |
| 20260506190516 | 62 | 83 | 0.0 | 0.9 | 0.00 | 0.00 | 0.00 | 68 | 1016.2 |
| 20260506185537 | 63 | 15 | 0.0 | 0.9 | 0.00 | 0.00 | 0.00 | 66 | 1016.1 |
| 20260506184516 | 64 | 245 | 0.0 | 2.6 | 0.00 | 0.00 | 0.00 | 66 | 1016.0 |
| 20260506183516 | 64 | 318 | 1.7 | 3.5 | 0.00 | 0.00 | 0.00 | 62 | 1015.9 |
| 20260506182516 | 64 | 20 | 0.9 | 2.6 | 0.00 | 0.00 | 0.00 | 60 | 1015.7 |
| 20260506181516 | 65 | 294 | 1.7 | 3.5 | 0.00 | 0.00 | 0.00 | 60 | 1015.5 |
| 20260506180516 | 65 | 311 | 0.0 | 2.6 | 0.00 | 0.00 | 0.00 | 52 | 1015.4 |
| 20260506175516 | 65 | 0.0 | 0.0 | 0.00 | 0.00 | 0.00 | 51 | 1015.3 | |
| 20260506174556 | 65 | 0.0 | 0.0 | 0.00 | 0.00 | 0.00 | 55 | 1015.3 | |
| 20260506173517 | 66 | 0.0 | 0.0 | 0.00 | 0.00 | 0.00 | 56 | 1015.3 | |
| 20260506172516 | 66 | 109 | 0.0 | 0.9 | 0.00 | 0.00 | 0.00 | 56 | 1015.2 |
| 20260506171557 | 67 | 47 | 0.0 | 0.9 | 0.00 | 0.00 | 0.00 | 53 | 1015.1 |
| 20260506170516 | 68 | 85 | 0.0 | 0.9 | 0.00 | 0.00 | 0.00 | 52 | 1015.1 |
| 20260506165517 | 69 | 334 | 0.9 | 5.2 | 0.00 | 0.00 | 0.00 | 52 | 1015.0 |
| 20260506164516 | 68 | 344 | 5.2 | 12.2 | 0.00 | 0.00 | 0.00 | 55 | 1015.0 |
| 20260506163536 | 69 | 350 | 7.8 | 10.4 | 0.00 | 0.00 | 0.00 | 55 | 1015.0 |
| 20260506162516 | 69 | 340 | 6.1 | 9.6 | 0.00 | 0.00 | 0.00 | 56 | 1015.0 |
| 20260506161516 | 70 | 304 | 0.9 | 4.3 | 0.00 | 0.00 | 0.00 | 54 | 1015.0 |
| 20260506160517 | 71 | 282 | 0.9 | 3.5 | 0.00 | 0.00 | 0.00 | 53 | 1015.0 |
| 20260506155516 | 70 | 269 | 1.7 | 5.2 | 0.00 | 0.00 | 0.00 | 55 | 1015.1 |
| 20260506154516 | 70 | 262 | 3.5 | 8.7 | 0.00 | 0.00 | 0.00 | 55 | 1015.1 |
| 20260506153516 | 71 | 255 | 1.7 | 7.0 | 0.00 | 0.00 | 0.00 | 54 | 1015.1 |
| 20260506152516 | 71 | 254 | 2.6 | 7.8 | 0.00 | 0.00 | 0.00 | 55 | 1015.1 |
| 20260506151516 | 71 | 258 | 1.7 | 7.8 | 0.00 | 0.00 | 0.00 | 55 | 1015.2 |
| 20260506150516 | 72 | 276 | 2.6 | 7.8 | 0.00 | 0.00 | 0.00 | 52 | 1015.2 |
| 20260506145536 | 71 | 223 | 0.9 | 7.0 | 0.00 | 0.00 | 0.00 | 55 | 1015.1 |
| 20260506144536 | 71 | 274 | 2.6 | 5.2 | 0.00 | 0.00 | 0.00 | 55 | 1015.2 |
| 20260506143517 | 71 | 238 | 1.7 | 7.0 | 0.00 | 0.00 | 0.00 | 56 | 1015.3 |
| 20260506142516 | 70 | 299 | 3.5 | 8.7 | 0.00 | 0.00 | 0.00 | 52 | 1015.3 |
| 20260506141516 | 70 | 296 | 4.3 | 10.4 | 0.00 | 0.00 | 0.00 | 55 | 1015.3 |
| 20260506140516 | 71 | 296 | 3.5 | 8.7 | 0.00 | 0.00 | 0.00 | 54 | 1015.2 |
| 20260506135516 | 70 | 281 | 4.3 | 10.4 | 0.00 | 0.00 | 0.00 | 51 | 1015.2 |
| 20260506134516 | 70 | 280 | 3.5 | 7.8 | 0.00 | 0.00 | 0.00 | 59 | 1015.2 |
| 20260506133538 | 70 | 285 | 3.5 | 8.7 | 0.00 | 0.00 | 0.00 | 61 | 1015.2 |
| 20260506132516 | 70 | 310 | 3.5 | 7.0 | 0.00 | 0.00 | 0.00 | 62 | 1015.3 |
| 20260506131516 | 69 | 281 | 3.5 | 9.6 | 0.00 | 0.00 | 0.00 | 65 | 1015.4 |
| 20260506130557 | 68 | 266 | 6.1 | 9.6 | 0.00 | 0.00 | 0.00 | 67 | 1015.4 |
| 20260506125536 | 68 | 264 | 7.0 | 10.4 | 0.00 | 0.00 | 0.00 | 66 | 1015.5 |
| 20260506124516 | 68 | 290 | 5.2 | 9.6 | 0.00 | 0.00 | 0.00 | 60 | 1015.5 |
| 20260506123516 | 69 | 272 | 6.1 | 10.4 | 0.00 | 0.00 | 0.00 | 57 | 1015.6 |
| 20260506122516 | 69 | 286 | 6.1 | 10.4 | 0.00 | 0.00 | 0.00 | 53 | 1015.7 |
| 20260506121516 | 69 | 288 | 4.3 | 8.7 | 0.00 | 0.00 | 0.00 | 51 | 1015.8 |
| 20260506120517 | 69 | 276 | 7.0 | 11.3 | 0.00 | 0.00 | 0.00 | 52 | 1015.8 |
| 20260506115516 | 70 | 282 | 4.3 | 8.7 | 0.00 | 0.00 | 0.00 | 50 | 1015.9 |
| 20260506114517 | 70 | 256 | 4.3 | 7.8 | 0.00 | 0.00 | 0.00 | 49 | 1015.9 |
| 20260506113516 | 70 | 270 | 4.3 | 8.7 | 0.00 | 0.00 | 0.00 | 46 | 1016.0 |
| 20260506112518 | 71 | 293 | 3.5 | 7.8 | 0.00 | 0.00 | 0.00 | 46 | 1016.0 |
| 20260506111537 | 70 | 254 | 4.3 | 7.8 | 0.00 | 0.00 | 0.00 | 47 | 1016.0 |
| 20260506110517 | 70 | 261 | 4.3 | 7.8 | 0.00 | 0.00 | 0.00 | 47 | 1016.0 |
| 20260506105517 | 70 | 244 | 2.6 | 7.0 | 0.00 | 0.00 | 0.00 | 50 | 1015.9 |
| 20260506104517 | 70 | 266 | 3.5 | 7.8 | 0.00 | 0.00 | 0.00 | 49 | 1015.9 |
| 20260506103517 | 69 | 265 | 5.2 | 8.7 | 0.00 | 0.00 | 0.00 | 48 | 1016.0 |
| 20260506102517 | 69 | 263 | 6.1 | 8.7 | 0.00 | 0.00 | 0.00 | 48 | 1016.1 |
| 20260506101517 | 69 | 269 | 6.1 | 8.7 | 0.00 | 0.00 | 0.00 | 49 | 1016.1 |
| 20260506100517 | 69 | 263 | 5.2 | 11.3 | 0.00 | 0.00 | 0.00 | 50 | 1016.2 |
| 20260506095517 | 70 | 266 | 6.1 | 9.6 | 0.00 | 0.00 | 0.00 | 49 | 1016.2 |
| 20260506094537 | 70 | 267 | 6.1 | 8.7 | 0.00 | 0.00 | 0.00 | 48 | 1016.3 |
| 20260506093517 | 70 | 236 | 5.2 | 8.7 | 0.00 | 0.00 | 0.00 | 52 | 1016.3 |
| 20260506092517 | 70 | 256 | 4.3 | 7.0 | 0.00 | 0.00 | 0.00 | 48 | 1016.4 |
| 20260506091517 | 70 | 248 | 4.3 | 7.8 | 0.00 | 0.00 | 0.00 | 49 | 1016.4 |
| 20260506090517 | 69 | 238 | 3.5 | 7.8 | 0.00 | 0.00 | 0.00 | 49 | 1016.4 |
| 20260506085517 | 69 | 237 | 3.5 | 6.1 | 0.00 | 0.00 | 0.00 | 48 | 1016.3 |
| 20260506084517 | 68 | 233 | 2.6 | 4.3 | 0.00 | 0.00 | 0.00 | 52 | 1016.3 |
| 20260506083517 | 68 | 266 | 3.5 | 5.2 | 0.00 | 0.00 | 0.00 | 54 | 1016.3 |
| 20260506082517 | 68 | 216 | 1.7 | 5.2 | 0.00 | 0.00 | 0.00 | 56 | 1016.3 |
| 20260506081517 | 67 | 245 | 1.7 | 5.2 | 0.00 | 0.00 | 0.00 | 56 | 1016.3 |
| 20260506080517 | 66 | 224 | 1.7 | 4.3 | 0.00 | 0.00 | 0.00 | 57 | 1016.3 |
| 20260506072517 | 66 | 244 | 1.7 | 4.3 | 0.00 | 0.00 | 0.00 | 66 | 1016.1 |
| 20260506071517 | 65 | 216 | 1.7 | 4.3 | 0.00 | 0.00 | 0.00 | 67 | 1016.1 |
| 20260506070517 | 65 | 233 | 2.6 | 5.2 | 0.00 | 0.00 | 0.00 | 69 | 1016.1 |
| 20260506061517 | 63 | 295 | 0.9 | 3.5 | 0.00 | 0.00 | 0.00 | 65 | 1015.9 |
| 20260506060538 | 64 | 0.0 | 0.0 | 0.00 | 0.00 | 0.00 | 61 | 1015.8 | |
| 20260506050517 | 60 | 0.0 | 0.0 | 0.00 | 0.00 | 0.00 | 69 | 1016.0 | |
| 20260506044517 | 58 | 0.0 | 0.0 | 0.00 | 0.00 | 0.00 | 70 | 1015.8 | |
| 20260506043518 | 57 | 0.0 | 0.0 | 0.00 | 0.00 | 0.00 | 71 | 1015.8 | |
| 20260506042517 | 55 | 0.0 | 0.0 | 0.00 | 0.00 | 0.00 | 72 | 1015.7 | |
| 20260506041537 | 55 | 0.0 | 0.0 | 0.00 | 0.00 | 0.00 | 69 | 1015.6 | |
| 20260506040537 | 54 | 0.0 | 0.0 | 0.00 | 0.00 | 0.00 | 71 | 1015.6 | |
| 20260506035517 | 54 | 0.0 | 0.0 | 0.00 | 0.00 | 0.00 | 71 | 1015.5 | |
| 20260506034537 | 54 | 0.0 | 0.0 | 0.00 | 0.00 | 0.00 | 71 | 1015.4 | |
| 20260506033517 | 55 | 0.0 | 0.0 | 0.00 | 0.00 | 0.00 | 73 | 1015.4 | |
| 20260506032517 | 56 | 0.0 | 0.0 | 0.00 | 0.00 | 0.00 | 71 | 1015.3 | |
| 20260506031537 | 56 | 0.0 | 0.0 | 0.00 | 0.00 | 0.00 | 69 | 1015.2 | |
| 20260506030517 | 55 | 0.0 | 0.0 | 0.00 | 0.00 | 0.00 | 67 | 1015.0 | |
| 20260506025517 | 55 | 0.0 | 0.0 | 0.00 | 0.00 | 0.00 | 68 | 1014.9 | |
| 20260506024518 | 55 | 0.0 | 0.0 | 0.00 | 0.00 | 0.00 | 68 | 1014.9 | |
| 20260506023517 | 55 | 0.0 | 0.0 | 0.00 | 0.00 | 0.00 | 65 | 1015.0 | |
| 20260506022518 | 55 | 0.0 | 0.0 | 0.00 | 0.00 | 0.00 | 67 | 1015.0 | |
| 20260506021517 | 55 | 0.0 | 0.0 | 0.00 | 0.00 | 0.00 | 66 | 1014.8 | |
| 20260506020518 | 56 | 0.0 | 0.0 | 0.00 | 0.00 | 0.00 | 64 | 1014.7 | |
| 20260506015517 | 55 | 0.0 | 0.0 | 0.00 | 0.00 | 0.00 | 65 | 1014.8 | |
| 20260506014517 | 56 | 0.0 | 0.0 | 0.00 | 0.00 | 0.00 | 64 | 1014.7 | |
| 20260506013518 | 56 | 0.0 | 0.0 | 0.00 | 0.00 | 0.00 | 64 | 1014.7 | |
| 20260506012537 | 56 | 0.0 | 0.0 | 0.00 | 0.00 | 0.00 | 63 | 1014.6 | |
| 20260506011537 | 57 | 0.0 | 0.0 | 0.00 | 0.00 | 0.00 | 65 | 1014.6 | |
| 20260506010538 | 57 | 0.0 | 0.0 | 0.00 | 0.00 | 0.00 | 64 | 1014.7 | |
| 20260506005517 | 57 | 0.0 | 0.0 | 0.00 | 0.00 | 0.00 | 68 | 1014.7 | |
| 20260506004517 | 57 | 0.0 | 0.0 | 0.00 | 0.00 | 0.00 | 70 | 1014.7 | |
| 20260506003517 | 57 | 0.0 | 0.0 | 0.00 | 0.00 | 0.00 | 76 | 1014.7 | |
| 20260506002517 | 58 | 0.0 | 0.0 | 0.00 | 0.00 | 0.00 | 77 | 1014.7 | |
| 20260506001518 | 57 | 0.0 | 0.0 | 0.00 | 0.00 | 0.00 | 76 | 1014.6 |